#timestamp,LO_Frequency,Hit,StdDev 
1575910815.5,286046999.1,N
1575910835.4,286046999.0,N
1575910855.2,286047000.9,N
1575910875.0,286047001.1,N
1575910876.0,286047001.1,N
1575910895.8,286046998.1,N
1575910915.6,286047000.9,N
1575910935.5,286047000.8,N
1575910955.3,286047001.2,N
1575910975.1,286047000.5,N
1575910995.9,286046998.7,N
1575911015.7,286046998.1,N
1575911035.6,286047000.4,N
1575911055.4,286047000.5,N
1575911075.2,286047001.2,N
1575911095.1,286046998.8,N
1575911096.0,286046998.8,N
1575911115.8,286046999.0,N
1575911135.6,286046998.9,N
1575911155.5,286046999.6,N
1575911175.3,286046996.5,N
1575911195.2,286046998.4,N
1575911215.9,286047001.2,N
1575911235.7,286046998.2,N
1575911255.6,286046998.3,N
1575911275.4,286046998.7,N
1575911295.2,286046998.4,N
1575911315.1,286047001.1,N
1575911316.0,286047001.1,N
1575911335.8,286047000.0,N
1575911355.7,286047000.3,N
1575911375.5,286046998.2,N
1575911395.3,286046999.1,N
1575911415.2,286046999.3,N
1575911435.0,286046998.7,N
1575911435.9,286046998.7,N
1575911455.8,286046998.1,N
1575911475.6,286046998.1,N
1575911495.4,286046998.3,N
1575911515.3,286046997.2,N
1575911535.1,286046996.7,N
1575911555.8,286046999.4,N
1575911575.7,286046997.6,N
1575911595.5,286046996.5,N
1575911615.4,286046996.6,N
1575911635.2,286046999.0,N
1575911655.0,286046998.4,N
1575911655.9,286046998.4,N
1575911675.8,286046998.8,N
1575911695.6,286046998.9,N
1575911715.4,286046999.5,N
1575911735.3,286046999.5,N
1575911755.1,286046999.1,N
1575911775.9,286046999.1,N
1575911795.7,286046998.8,N
1575911815.5,286046996.8,N
1575911835.4,286046997.0,N
1575911855.2,286046997.2,N
1575911875.1,286046996.8,N
1575911876.0,286046996.8,Y
1575911895.8,286046999.1,P
1575911915.6,286046998.7,P
1575911935.5,286047000.5,N
1575911955.3,286047001.0,N
1575911975.1,286047000.7,N
1575911995.9,286046999.8,N
1575912015.7,286047000.1,N
1575912035.6,286047002.8,Y
1575912055.4,286047001.9,P
1575912075.2,286047002.4,N
1575912095.1,286047001.3,N
1575912096.0,286047001.3,N
1575912115.8,286047001.6,N
1575912135.6,286047002.3,N
1575912155.5,286046999.7,N
1575912175.3,286047000.1,N
1575912195.2,286047002.7,N
1575912215.9,286047002.3,N
1575912235.7,286047002.6,N
1575912255.6,286047002.4,N
1575912275.4,286047002.5,N
1575912295.2,286047001.9,N
1575912315.1,286047002.2,N
1575912316.0,286047002.2,N
1575912335.8,286046999.8,N
1575912355.7,286047001.0,N
1575912375.5,286047000.3,N
1575912395.3,286047002.0,N
1575912415.2,286047002.4,N
1575912435.0,286047000.5,N
1575912435.9,286047000.5,N
1575912455.7,286046998.3,N
1575912475.6,286046999.2,N
1575912495.4,286046998.4,N
1575912515.3,286047000.0,N
1575912535.1,286047000.8,N
1575912536.0,286047000.8,N
1575912555.8,286047000.9,N
1575912575.7,286047000.0,N
1575912595.5,286047000.6,N
1575912615.3,286047002.4,N
1575912635.2,286047000.3,N
1575912655.0,286047000.4,N
1575912655.9,286047000.4,N
1575912675.8,286047002.0,N
1575912695.6,286047000.1,N
1575912715.4,286046999.8,N
1575912735.3,286047000.0,N
1575912755.1,286046999.9,N
1575912775.8,286046998.4,N
1575912795.7,286046998.4,N
1575912815.5,286047000.3,N
1575912835.4,286047001.0,N
1575912855.2,286047002.2,N
1575912875.0,286047002.2,N
1575912875.9,286047002.2,N
1575912895.8,286047002.0,N
1575912915.6,286047002.6,N
1575912935.4,286046999.8,N
1575912955.3,286047000.9,N
1575912975.1,286047000.0,N
1575912995.9,286047000.7,N
1575913015.7,286047000.5,N
1575913035.5,286047000.5,N
1575913055.4,286047001.6,N
1575913075.2,286047002.3,N
1575913095.0,286047000.4,N
1575913095.9,286047000.4,N
1575913115.8,286047000.3,N
1575913135.6,286047000.4,N
1575913155.5,286047000.2,N
1575913175.3,286046999.8,N
1575913195.1,286047002.0,N
1575913215.9,286047002.4,N
1575913235.7,286047002.0,N
1575913255.5,286047002.6,N
1575913275.4,286046999.8,N
1575913295.2,286047002.0,N
1575913315.1,286047002.8,N
1575913316.0,286047002.8,N
1575913335.8,286047002.1,N
1575913355.6,286047002.0,N
1575913375.5,286047002.8,N
1575913395.3,286047000.0,N
1575913415.1,286047001.1,N
1575913435.9,286047001.1,N
1575913455.7,286046998.2,N
1575913475.6,286046998.4,N
1575913495.4,286047001.0,N
1575913515.2,286046998.5,N
1575913535.1,286046998.2,N
1575913536.0,286046998.2,N
1575913555.8,286046998.7,N
1575913575.7,286046999.3,N
1575913595.5,286046998.8,N
1575913615.3,286047000.0,N
1575913635.2,286047002.7,N
1575913655.0,286047002.0,N
1575913655.9,286047002.0,N
1575913675.7,286046999.9,N
1575913695.6,286046998.1,N
1575913715.4,286046998.8,N
1575913735.3,286046998.2,N
1575913755.1,286046999.0,N
1575913756.0,286046999.0,N
1575913775.8,286046998.6,N
1575913795.7,286046999.0,N
1575913815.5,286046998.9,N
1575913835.3,286046998.6,N
1575913855.2,286046998.2,N
1575913875.0,286046999.1,N
1575913875.9,286046999.1,N
1575913895.8,286046999.1,N
1575913915.6,286046998.1,N
1575913935.4,286047000.9,N
1575913955.3,286046998.9,N
1575913975.1,286047001.1,N
1575913995.9,286046998.5,N
1575914015.7,286047001.0,N
1575914035.5,286046999.9,N
1575914055.4,286047000.1,N
1575914075.2,286047002.6,N
1575914095.0,286046999.8,N
1575914095.9,286046999.8,N
1575914115.8,286047002.4,N
1575914135.6,286046999.8,N
1575914155.5,286047000.5,N
1575914175.3,286047001.2,N
1575914195.1,286046999.1,N
1575914215.9,286047000.8,N
1575914235.7,286047000.3,N
1575914255.5,286046998.5,N
1575914275.4,286047000.8,N
1575914295.2,286047001.2,N
1575914315.1,286047000.7,N
1575914316.0,286047000.7,N
1575914335.8,286046998.5,N
1575914355.6,286047001.2,N
1575914375.5,286046999.8,N
1575914395.3,286047002.0,N
